Probability
0 0 0 0 0 0 0 0 0 0 0 0 0 0 0 0 0 0 0 0 0 0 0 0 0 0 0 0 0 0 0 0 0 0 0 0 0 0 0 0 0 0 0 0
0 0 0 0 0 0 0 0 0 0 0 0 0 0 0 0 0 0 0 0 0 0 0 0 0 0 0 0 0 0 0 0 0 0 0 0 0 0 0 0 0 0 0 0
0 0 0 0 0 0 0 0 0 0 0 0 0 0 0 0 0 0 0 0 0 0 0 0 0 0 0 0 0 0 0 0 0 0 0 0 0 0 0 0 0 0 0 0
0 0 0 0 0 0 0 0 0 0 0 0 0 0 0 0 0 0 0 0 0 0 0 0 0 0 0 0 0 0 0 0 0 0 0 0 0 0 0 0 0 0 0 0
0 0 0 0 0 0 0 0 0 0 0 0 0 0 0 0 0 0 0 0 0 0 0 0 0 0 0 0 0 0 0 0 0 0 0 0 0 0 0 0 0 0 0 0
0 0 0 0 0 0 0 0 0 0 0 0 0 0 0 0 0 0 0 0 0 0 0 0 0 0 0 0 0 0 0 0 0 0 0 0 0 0 0 0 0 0 0 0
0 0 0 0 0 0 0 0 0 0 0 0 0 0 0 0 0 0 0 0 0 0 0 0 0 0 0 0 0 0 0 0 0 0 0 0 0 0 0 0 0 0 0 0
0 0 0 0 0 0 0 0 0 0 0 0 0 0 0 0 0 0 0 0 0 0 0 0 0 0 0 0 0 0 0 0 0 0 0 0 0 0 0 0 0 0 0 0
0 0 0 0 0 0 0 0 0 0 0 0 0 0 0 0 0 0 0 0 0 0 0 0 0 0 0 0 0 0 0 0 0 0 0 0 0 0 0 0 0 0 0 0
0 0 0 0 0 0 0 0 0 0 0 0 0 0 0 0 0 0 0 0 0 0 0 0 0 0 0 0 0 0 0 0 0 0 0 0 0 0 0 0 0 0 0 0
0 0 0 0 0 0 0 0 0 0 0 0 0 0 0 0 0 0 0 0 0 0 0 0 0 0 0 0 0 0 0 0 0 0 0 0 0 0 0 0 0 0 0 0
0 0 0 0 0 0 0 0 0 0 0 0 0 0 0 0 0 0 0 0 0 0 0 0 0 0 0 0 0 0 0 0 0 0 0 0 0 0 0 0 0 0 0 0
0 0 0 0 0 0 0 0 0 0 0 0 0 0 0 0 0 0 0 0 0 0 0 0 0 0 0 0 0 0 0 0 0 0 0 0 0 0 0 0 0 0 0 0
0 0 0 0 0 0 0 0 0 0 0 0 0 0 0 0 0 0 0 0 0 0 0 0 0 0 0 0 0 0 0 0 0 0 0 0 0 0 0 0 0 0 0 0
0 0 0 0 0 0 0 0 0 0 0 0 0 0 0 0 0 0 0 0 0 0 0 0 0 0 0 0 0 0 0 0 0 0 0 0 0 0 0 0 0 0 0 0
0 0 0 0 0 0 0 0 0 0 0 0 0 0 0 0 0 0 0 0 0 0 0 0 0 0 0 0 0 0 0 0 0 0 0 0 0 0 0 0 0 0 0 0
0 0 0 0 0 0 0 0 0 0 0 0 0 0 0 0 0 0 0 0 0 0 0 0 0 0 0 0 0 0 0 0 0 0 0 0 0 0 0 0 0 0 0 0
0 0 0 0 0 0 0 0 0 0 0 0 0 0 0 0 0 0 0 0 0 0 0 0 0 0 0 0 0 0 0 0 0 0 0 0 0 0 0 0 0 0 0 0
0 0 0 0 0 0 0 0 0 0 0 0 0 0 0 0 0 0 0 0 0 0 0 0 0 0 0 0 0 0 0 0 0 0 0 0 0 0 0 0 0 0 0 0
0 0 0 0 0 0 0 0 0 0 0 0 0 0 0 0 0 0 0 0 0 0 0 0 0 0 0 0 0 0 0 0 0 0 0 0 0 0 0 0 0 0 0 0
0 0 0 0 0 0 0 0 0 0 0 0 0 0 0 0 0 0 0 0 0 0 0 0 0 0 0 0 0 0 0 0 0 0 0 0 0 0 0 0 0 0 0 0
0 0 0 0 0 0 0 0 0 0 0 0 0 0 0 0 0 0 0 0 0 0 0 0 0 0 0 0 0 0 0 0 0 0 0 0 0 0 0 0 0 0 0 0
0 0 0 0 0 0 0 0 0 0 0 0 0 0 0 0 0 0 0 0 0 0 0 0 0 0 0 0 0 0 0 0 0 0 0 0 0 0 0 0 0 0 0 0
0 0 0 0 0 0 0 0 0 0 0 0 0 0 0 0 0 0 0 0 0 0 0 0 0 0 0 0 0 0 0 0 0 0 0 0 0 0 0 0 0 0 0 0
0 0 0 0 0 0 0 0 0 0 0 0 0 0 0 0 0 0 0 0 0 0 0 0 0 0 0 0 0 0 0 0 0 0 0 0 0 0 0 0 0 0 0 0
0 0 0 0 0 0 0 0 0 0 0 0 0 0 0 0 0 0 0 0 0 0 0 0 0 0 0 0 0 0 0 0 0 0 0 0 0 0 0 0 0 0 0 0
Wind_Speed
1 2 4 7 8 6 4 4 7 8 5 4 7 11 13 7 1 3 3 5 7 7 7 6 5 1 5 7 9 11 13 11 9 7 8 8 10 8 7 8 10 12 12 12
3 5 10 6 5 5 4 5 7 7 4 3 6 9 8 1 3 4 4 4 5 7 9 9 7 4 2 5 7 8 10 11 11 11 9 6 6 5 6 6 8 11 12 12
7 8 3 4 4 3 4 5 5 5 7 5 5 8 5 4 3 3 3 3 3 5 6 7 6 4 1 2 5 7 9 10 10 9 4 2 1 1 3 6 7 10 12 13
7 7 4 4 4 4 5 4 3 2 4 5 3 4 6 1 1 1 2 2 3 4 5 5 6 5 3 3 2 3 4 6 7 7 6 9 9 10 10 8 8 9 11 13
5 2 3 4 5 5 5 1 2 1 1 4 2 2 8 2 4 4 2 1 1 3 4 5 5 5 5 4 2 1 1 3 5 7 9 9 11 11 7 5 7 9 9 12
7 3 4 4 1 2 1 4 4 4 4 3 3 4 7 5 8 6 4 2 1 2 3 4 4 5 6 5 4 3 1 2 3 6 7 9 12 11 9 8 8 8 8 9
4 2 2 3 2 1 4 5 5 5 4 5 3 3 9 7 5 8 8 5 2 1 2 3 4 5 5 5 5 3 2 3 3 5 7 9 11 11 12 11 10 9 8 8
2 5 4 3 4 4 3 6 5 2 4 6 6 5 7 5 3 6 6 4 2 1 0 0 1 2 3 4 4 3 3 4 4 5 7 7 9 8 9 10 10 10 10 10
5 4 0 2 1 5 3 3 5 5 1 4 7 7 6 4 6 5 4 3 3 2 2 1 1 1 2 3 3 3 4 5 5 5 6 7 7 8 10 10 9 9 10 9
7 3 1 1 2 1 2 5 5 4 2 4 7 6 4 3 3 3 3 5 5 4 3 2 1 2 2 3 3 3 3 4 5 5 5 5 6 7 8 8 9 10 11 10
4 4 1 0 5 6 4 3 4 4 4 4 4 9 5 4 6 6 6 6 6 5 3 2 2 2 3 4 4 4 4 5 5 6 5 6 7 7 7 7 9 9 9 9
4 5 3 6 4 3 7 7 7 5 5 5 4 10 4 4 4 5 5 4 3 3 2 2 2 3 4 5 5 5 5 5 6 5 5 6 7 6 7 8 9 9 9 9
5 6 1 5 2 1 2 4 5 4 3 5 5 10 2 2 1 1 1 1 2 3 2 2 3 4 5 5 5 5 5 6 6 6 6 7 7 7 8 9 9 9 9 9
6 5 7 8 6 3 3 4 4 5 4 6 11 11 8 6 4 2 1 1 2 3 3 3 4 5 5 6 6 6 6 6 6 6 6 7 8 8 9 9 9 9 9 9
6 4 5 6 4 4 6 9 8 9 10 10 10 10 11 7 3 1 1 2 3 3 4 4 4 5 6 6 6 6 7 7 6 6 7 8 9 8 8 9 9 9 9 10
4 4 2 3 4 5 9 13 11 11 9 10 10 12 4 1 2 2 2 2 2 3 4 5 6 6 7 7 7 7 7 8 7 7 8 9 9 9 9 9 9 9 10 10
5 6 4 4 3 6 11 10 8 6 6 7 8 5 1 2 1 1 1 1 2 4 6 6 7 7 7 7 7 7 8 8 8 8 9 9 9 9 10 10 10 10 10 10
8 7 4 2 1 9 10 3 3 3 2 1 3 2 2 1 2 1 2 0 3 5 6 7 7 7 7 7 7 7 8 8 8 9 9 9 9 10 10 10 10 11 10 10
6 8 5 4 4 10 10 5 3 4 1 1 4 2 0 2 2 2 2 1 4 5 6 6 6 7 7 8 7 8 8 8 9 9 10 10 10 11 11 11 11 10 10 10
3 5 6 5 5 9 8 3 0 3 2 1 3 2 0 2 3 5 4 5 6 7 6 6 7 7 7 8 7 8 9 9 10 11 11 10 10 11 12 12 12 10 10 11
4 4 5 6 6 11 8 4 2 3 5 2 2 1 1 2 5 6 6 6 7 7 8 7 7 7 7 8 8 9 10 11 11 11 11 11 11 11 12 12 10 10 11 11
9 7 7 7 7 12 4 3 4 4 2 2 1 2 3 5 7 7 6 7 7 7 7 7 7 8 8 7 8 11 12 12 12 11 12 12 11 11 10 11 11 10 11 12
8 9 8 11 9 3 2 4 3 4 3 2 2 4 4 5 6 6 6 6 7 7 7 7 8 9 9 8 8 11 14 13 13 13 13 12 12 10 10 11 12 11 9 9
4 3 5 4 4 2 4 4 3 2 3 4 4 4 3 4 5 6 6 6 6 7 7 7 8 10 11 10 9 10 13 12 13 14 13 12 12 12 10 9 9 9 9 10
4 3 3 3 2 3 3 3 4 4 3 3 3 3 2 3 4 5 5 6 7 7 7 7 8 11 13 13 12 11 11 11 12 13 13 12 10 11 11 9 9 11 9 12
4 6 6 6 4 4 4 3 2 2 1 2 2 2 3 2 4 5 6 6 7 8 8 9 10 11 13 13 13 12 10 10 12 13 12 10 10 10 10 10 11 15 18 23
Wind_Direction
46 81 225 222 207 213 233 247 270 266 279 298 269 278 290 304 98 90 50 31 23 2 341 356 8 128 175 185 191 196 198 198 184 181 191 200 212 209 208 210 207 205 205 203
22 257 240 226 215 213 234 271 281 292 328 305 291 295 303 324 126 131 104 59 35 15 8 9 17 40 149 194 201 200 202 197 195 201 201 200 205 208 211 213 212 208 208 207
218 243 246 194 215 243 263 243 258 284 327 347 354 340 354 14 56 63 57 53 43 37 23 9 11 18 23 227 214 209 207 202 203 200 182 171 158 267 214 216 219 214 211 212
236 251 211 213 230 203 268 251 238 302 5 315 23 313 292 284 57 75 36 34 43 30 26 19 13 9 350 298 266 233 213 206 202 188 187 195 207 222 223 220 221 215 213 216
260 229 194 218 232 191 233 298 275 253 122 319 314 205 280 252 211 216 220 201 61 38 36 28 15 7 1 357 1 329 225 213 202 197 203 209 226 236 239 228 228 225 221 220
247 248 214 210 180 175 27 34 43 49 66 319 252 179 276 222 206 194 202 204 142 59 41 30 18 19 11 11 19 22 6 262 219 210 214 219 232 239 244 240 236 235 231 227
302 257 222 142 122 64 72 63 13 354 4 268 284 228 254 253 212 174 175 182 189 129 61 31 26 19 11 11 9 6 350 299 260 230 230 230 236 240 243 245 243 242 242 237
276 284 227 193 181 182 184 138 155 231 258 292 316 256 269 310 93 123 139 163 173 164 179 32 22 15 355 2 5 355 332 301 284 255 248 243 241 242 248 248 245 245 247 244
197 259 330 177 206 160 156 169 169 142 264 278 287 295 315 37 73 102 134 160 188 212 222 233 314 359 349 352 347 332 320 307 298 279 267 260 250 245 250 255 251 252 252 252
163 224 264 73 77 41 149 146 104 132 205 273 292 286 239 197 174 169 187 204 219 230 241 248 295 324 331 332 329 330 318 299 295 291 277 269 265 256 255 259 260 258 258 256
138 172 268 280 203 202 159 174 154 146 163 178 265 273 235 198 188 187 208 217 218 226 239 259 292 318 330 336 337 332 324 314 307 300 291 285 280 276 271 264 263 263 263 259
131 128 234 257 251 205 181 184 153 164 222 190 201 266 263 168 174 178 200 220 235 249 265 285 313 332 336 335 330 324 317 311 300 297 296 291 288 287 281 274 271 268 266 265
133 119 27 332 334 57 192 185 172 150 151 183 200 259 259 162 152 176 184 239 282 310 330 337 335 330 323 319 315 312 310 304 300 302 303 301 298 294 286 281 280 277 272 271
115 142 178 208 210 191 247 243 208 174 197 226 225 248 274 295 309 311 340 4 2 3 359 346 328 314 306 303 302 303 302 300 301 305 305 301 296 291 288 287 286 283 279 277
118 180 220 241 248 238 241 249 238 220 212 227 244 247 266 270 244 222 48 37 37 17 353 334 312 299 298 299 300 299 298 300 302 304 302 296 294 294 294 293 290 287 283 279
122 165 194 274 276 282 274 260 246 239 228 233 256 270 275 156 116 83 62 52 24 336 319 312 307 305 301 296 294 296 297 297 300 298 295 294 297 298 295 292 290 287 284 281
155 147 152 261 312 345 278 252 224 220 219 206 225 237 127 88 74 97 126 54 320 304 300 301 299 293 290 287 287 291 290 295 298 295 294 297 297 295 292 290 290 287 286 283
151 147 153 191 57 247 245 242 209 211 255 198 140 114 104 187 262 227 163 56 305 296 294 293 291 290 288 287 290 291 294 298 299 296 295 294 293 290 290 290 288 288 285 283
161 148 147 156 220 275 287 273 198 168 188 87 122 115 10 289 322 288 223 279 279 281 282 282 283 286 290 294 298 303 304 304 302 299 295 293 291 290 292 291 289 288 288 288
93 137 143 156 194 242 251 257 185 95 219 154 126 124 331 35 353 279 281 303 298 296 295 298 299 301 303 303 306 307 306 305 301 297 294 292 289 288 289 289 289 288 286 288
125 144 171 175 213 258 255 258 138 188 232 165 141 160 204 215 230 255 285 288 284 288 292 296 300 300 296 299 307 305 303 300 297 296 295 293 289 287 288 288 287 289 289 289
170 167 182 164 199 249 250 141 160 188 140 143 174 225 246 250 263 275 281 282 291 295 299 304 304 301 299 301 304 303 302 300 299 298 297 296 293 291 294 290 292 289 289 291
194 187 180 189 207 221 96 119 123 130 147 195 230 252 258 265 273 282 286 292 296 297 299 301 300 301 301 298 294 296 300 302 303 301 300 298 296 291 288 289 293 294 290 289
246 162 159 216 245 150 117 118 128 162 192 220 234 248 251 265 279 289 292 296 300 299 300 301 303 304 305 304 295 287 295 301 301 302 303 300 300 299 292 286 287 289 290 289
228 153 162 231 228 123 158 180 197 203 204 209 230 236 253 278 291 292 295 295 295 296 296 297 298 300 302 304 302 298 297 301 302 302 301 300 297 296 297 291 286 289 279 282
205 180 182 223 207 180 215 213 193 193 232 245 274 303 310 297 289 292 290 288 291 297 300 301 299 298 300 303 302 303 301 299 301 305 304 301 299 297 296 297 296 291 290 295